Regional Weather Roundup
Issued by NWS Albany, NY

Home | Current Version | Previous Version | Text Only | Print | Product List | Glossary On
Versions: 1 2 3 4 5 6 7 8 9 10 11 12 13 14 15 16 17 18 19 20 21 22 23 24 25 26 27
000
ASUS41 KALY 222110
RWRALY

NEW YORK STATE HOURLY WEATHER ROUNDUP
NATIONAL WEATHER SERVICE ALBANY NY
500 PM EDT SUN OCT 22 2017

NOTE: "FAIR" INDICATES FEW OR NO CLOUDS BELOW 12,000 FEET WITH NO
SIGNIFICANT WEATHER AND/OR NO OBSTRUCTIONS TO VISIBILITY.

NYZ032-033-038>043-046>054-057>066-NYZ062>081-082-084-222200-
EAST


CITY           SKY/WX    TMP DP  RH WIND       PRES   REMARKS
ALBANY         CLOUDY    73  41  31 S8        30.30F
GLENS FALLS    PTCLDY    68  47  46 S3        30.30F
POUGHKEEPSIE   MOSUNNY   75  43  31 VRB6      30.33S
NEWBURGH       MOSUNNY   75  41  29 S9        30.35S
MONTGOMERY     SUNNY     74  45  35 SE7       30.32F
WHITE PLAINS   MOSUNNY   70  45  40 S7        30.36S
ISLIP          PTSUNNY   67  51  56 S8        30.38R
NEW YORK CITY  PTSUNNY   71  43  36 S13       30.36S
CENTRAL PARK   MOSUNNY   70  49  47 VRB3      30.38S
$$

NYZ005>009-017-018-044>046-055-056-222200-
CENTRAL


CITY           SKY/WX    TMP DP  RH WIND       PRES   REMARKS
FULTON         CLOUDY    73  52  47 SE5       30.22F
SYRACUSE       CLOUDY    71  51  49 SE7       30.23F
ROME           CLOUDY    73  44  35 S7        30.26F
ELMIRA         CLOUDY    73  52  47 S10       30.24F
BINGHAMTON     PTSUNNY   68  45  43 SE8       30.29F
$$

NYZ026>034-041>043-087-222200-
NORTH


CITY           SKY/WX    TMP DP  RH WIND       PRES   REMARKS
WATERTOWN      MOSUNNY   68  52  56 CALM      30.22F
FORT DRUM      NOT AVBL
OGDENSBURG     FAIR      74  49  40 CALM      30.21F
MASSENA        PTCLDY    67  54  63 E7        30.24S
SARANAC LAKE   CLOUDY    72  40  31 S10       30.27S
PLATTSBURGH    CLOUDY    69  47  45 S8        30.24S
$$

NYZ001>004-010>016-019>021-085-222200-
WEST


CITY           SKY/WX    TMP DP  RH WIND       PRES   REMARKS
NIAGARA FALLS  SUNNY     77  50  38 S8        30.15F
BUFFALO        PTSUNNY   75  51  43 SW8       30.16F
DUNKIRK        SUNNY     77  51  40 S7        30.16F
JAMESTOWN      SUNNY     72  50  45 S7        30.21F
WELLSVILLE     SUNNY     71  46  40 S7        30.27S
ROCHESTER      CLOUDY    72  56  57 SE8       30.19F
PENN YAN       CLOUDY    71  50  47 S7        30.23F
$$

             KEY
       WCI = WIND CHILL INDEX
       VSB = VISIBILITY
       HX  = HEAT INDEX
$$




USA.gov is the U.S. government's official web portal to all federal, state and local government web resources and services.